Regional Weather Roundup
Issued by NWS

Home | Current Version | Previous Version | Graphics & Text | Print | Product List | Glossary On
Versions: 1 2 3 4 5 6 7 8 9 10 11 12 13 14 15 16 17 18 19 20 21 22 23 24 25 26 27 28 29 30 31 32 33 34 35 36 37 38 39 40 41 42 43 44 45 46 47 48 49
000
ASUS45 KBOU 190310
RWRCO

WEATHER ROUNDUP FOR COLORADO
NATIONAL WEATHER SERVICE DENVER/BOULDER CO
800 PM MST SUN FEB 18 2018

NOTE: "FAIR" INDICATES FEW OR NO CLOUDS BELOW 12000 FEET WITH NO
SIGNIFICANT WEATHER AND/OR OBSTRUCTIONS TO VISIBILITY.

COZ001>005-013-030-031-190400-
...NORTHWEST COLORADO...

CITY           SKY/WX    TMP DP  RH WIND       PRES   REMARKS
CRAIG          FAIR      46  19  34 S32G45    29.40F
HAYDEN         FAIR      42  20  41 SW21G32   29.42F
MEEKER         FAIR      45  19  35 SW14      29.45F
RANGELY        FAIR      51  18  27 SW21G31   29.40S
RABBIT EARS PA FAIR      28  16  59 S14G36    29.53R WCI  17
STEAMBOAT SPGS FAIR      41  18  39 SE10      29.45S
WALDEN         FAIR      34  16  47 S14G22    29.49F WCI  24
$$

COZ006>008-011-190400-
...WEST CENTRAL VALLEYS...

CITY           SKY/WX    TMP DP  RH WIND       PRES   REMARKS
GRAND JUNCTION FAIR      55  19  24 SW20G31   29.45F
MONTROSE       FAIR      50  16  25 SW18G28   29.56F
EAGLE          CLOUDY    47  19  33 SW18G24   29.53F
RIFLE          FAIR      50  22  33 SW12G24   29.47F
DELTA          FAIR      55  17  22 SW16G25   29.51S
NUCLA          FAIR      48  14  25 S20G26    29.60F
$$

COZ017>023-064>068-190400-
...SOUTHWEST COLORADO...

CITY           SKY/WX    TMP DP  RH WIND       PRES   REMARKS
DURANGO        CLOUDY    38  23  55 CALM      29.71F
CORTEZ         FAIR      46  16  30 SW10      29.67F
PAGOSA SPRINGS CLOUDY    35  20  54 CALM      29.75F
TELLURIDE      MOCLDY    34  21  60 E8        29.73F WCI  27
WOLF CREEK PAS CLOUDY    21  14  73 S35G47    29.78S WCI   2
$$

COZ009-010-012-014-032>034-037-058>063-190400-
...CENTRAL COLORADO...

CITY           SKY/WX    TMP DP  RH WIND       PRES   REMARKS
ASPEN          MOCLDY    42  16  34 CALM      29.55F
BUENA VISTA    FAIR      40   8  26 S3        29.60R
COPPER MTN     FAIR      28   9  43 S16G31    29.67F WCI  17
BERTHOUD PASS  FAIR      21  10  63 W43G62    29.60F WCI   0
COTTONWOOD PAS FAIR      37  12  35 W18G29    29.62R
GUNNISON       CLOUDY    41  14  33 S12       29.62F
GRANBY         FAIR      36  13  38 SE3       29.55S
KREMMLING      FAIR      45  16  31 SW18      29.52S
LEADVILLE      FAIR      32   9  38 W15G26    29.61F WCI  22
MONARCH PASS   FAIR      23   9  54 SW41G53   29.76F WCI   3
SALIDA         FAIR      44  11  26 S6        29.70R
SUNLIGHT       FAIR      23  18  80 S22G41    29.59F WCI   8
WILKERSON PASS FAIR      28   7  40 S10G22    29.66F WCI  19
$$

COZ069>075-190400-
...SAN LUIS VALLEY/SANGRE DE CRISTO MOUNTAINS...

CITY           SKY/WX    TMP DP  RH WIND       PRES   REMARKS
ALAMOSA        FAIR      35  18  49 S14       29.69F WCI  26
DEL NORTE      FAIR      40  15  36 SW24G31   29.69F
LA VETA PASS   FAIR      32  18  55 S38G56    29.77R WCI  16
SAGUACHE       FAIR      32  10  40 E8        29.69S WCI  25
$$

COZ035-036-038>040-190400-
...NORTHERN COLORADO FRONT RANGE...

CITY           SKY/WX    TMP DP  RH WIND       PRES   REMARKS
DENVER INTL AP FAIR      33  25  72 NE23      29.50R WCI  21
AURORA         PTCLDY    38  25  60 E22G37    29.48R
FRONT RANGE AP PTCLDY    36  28  75 NE22      29.52R
ERIE MUNI ARPT FAIR      36  27  69 NE20G30   29.59R
BOULDER MUN AP FAIR      36  28  75 N17G26    29.57R
CENTENNIAL     FAIR      50   8  18 W12       29.46S
BROOMFIELD     PTCLDY    39  25  56 NE22G38   29.50R
FORT COLLINS   CLOUDY    29  24  82 NE25      29.57R WCI  14
LONGMONT       MOCLDY    35  27  73 NE15G29   29.60R WCI  25
$$

COZ041-046-047-076>085-087-088-190400-
...PIKES PEAK/PALMER DIVIDE AND SOUTHERN FOOTHILLS...

CITY           SKY/WX    TMP DP  RH WIND       PRES   REMARKS
COLO. SPRINGS  FAIR      50  13  22 SW28G37   29.50F
A. F. ACADEMY  FAIR      48   9  20 CALM      29.50R
SCHRIEVER AFB  NOT AVBL
CHEYENNE MTN   FAIR      46  11  24 SE13G21   29.48R
ELLICOTT         N/A    N/A N/A N/A SW28G39   29.50S
FALCON         FAIR      44   9  23 S18       29.53S
FORT CARSON    FAIR      52  12  20 SW16G23   29.50S
LIMON          FAIR      49  10  20 VRB7      29.46R
MONUMENT HILL  FAIR      39   7  26 W7        29.54S
CANON CITY     CLEAR     55  14  19 NW12      29.52F
WALSENBURG     NOT AVBL
TRINIDAD       FAIR      55  16  21 W26G39    29.58R
$$

COZ042>045-048>051-090-091-190400-
...NORTHEAST COLORADO...

CITY           SKY/WX    TMP DP  RH WIND       PRES   REMARKS
GREELEY ARPT   CLOUDY    29  24  82 NE23      29.57R WCI  15
AKRON          CLOUDY    25  24  96 NE25      29.54R WCI   9
BURLINGTON     FAIR      55  13  18 SW18G28   29.43R
WRAY           CLOUDY    30  27  86 NE25G36   29.55R WCI  16
YUMA           NOT AVBL
STERLING       CLOUDY    25  21  86 NE17G31   29.59R WCI  11
HOLYOKE        CLOUDY    28  23  80 N28       29.58R WCI  13
FORT MORGAN    CLOUDY    25  22  85 NE29      29.53S WCI   9
$$

COZ086-089-092>099-190400-
...SOUTHEAST COLORADO...

CITY           SKY/WX    TMP DP  RH WIND       PRES   REMARKS
PUEBLO         FAIR      60  10  14 SW20G29   29.46F
LA JUNTA       FAIR      58  10  15 SW17G25   29.48S
LAMAR          FAIR      52   8  17 MISG      29.45R
SPRINGFIELD      N/A     57  16  20 SW17G24   29.54S
$$




USA.gov is the U.S. government's official web portal to all federal, state and local government web resources and services.